1489064401.1,17098,9.94,73020.3,1.03,-5.15,-5.27,0,*79
1489064402.32,17099,9.94,73022.0,1.03,-6.01,-6.35,0,*7E
1489064403.53,17100,9.94,73022.3,1.03,-6.47,-6.85,0,*76
1489064404.75,17101,9.94,73020.3,1.05,-6.23,-6.39,0,*74
1489064405.98,17102,9.94,73024.3,1.07,-5.39,-5.47,0,*77
1489064407.23,17103,9.94,73022.0,1.11,-5.03,-5.11,0,*7B
1489064408.43,17104,9.94,73020.5,1.11,-5.55,-5.51,0,*7B
1489064409.7,17105,9.94,73026.0,1.13,-5.77,-5.73,0,*78
1489064410.92,17106,9.94,73024.3,1.13,-6.01,-6.01,0,*7F
1489064412.17,17107,9.94,73024.3,1.15,-4.73,-4.69,0,*73
1489064413.43,17108,9.94,73020.3,1.21,-4.93,-4.93,0,*70
1489064414.63,17109,9.94,73022.3,1.23,-4.65,-4.61,0,*77
1489064415.88,17110,9.94,73022.3,1.25,-4.77,-4.73,0,*79
1489064417.12,17111,9.94,73016.3,1.25,-4.99,-4.89,0,*7D
1489064418.38,17112,9.94,73016.8,1.29,-4.85,-4.93,0,*74
1489064419.58,17113,9.94,73016.0,1.31,-5.47,-5.55,0,*78
1489064420.85,17114,9.94,73014.8,1.33,-5.11,-5.23,0,*7F
1489064422.11,17115,9.94,73020.8,1.33,-4.81,-4.89,0,*77
1489064423.35,17116,9.94,73018.0,1.35,-4.73,-4.77,0,*7E
1489064424.59,17117,9.94,73016.8,1.37,-6.27,-6.43,0,*7B
1489064425.82,17118,9.94,73018.5,1.37,-6.73,-6.97,0,*7C
1489064427.07,17119,9.94,73014.0,1.37,-6.01,-6.19,0,*7E
1489064428.29,17120,9.94,73018.5,1.37,-6.31,-6.55,0,*7F
1489064429.53,17121,9.94,73012.3,1.37,-5.89,-6.05,0,*7B
1489064430.77,17122,9.94,73014.3,1.39,-5.77,-5.93,0,*7B
1489064431.97,17123,9.94,73014.3,1.39,-6.01,-6.13,0,*73
1489064433.19,17124,9.94,73012.8,1.39,-4.99,-5.03,0,*75
1489064434.42,17125,9.94,73008.5,1.43,-5.47,-5.55,0,*78
1489064435.66,17126,9.94,73016.5,1.45,-4.89,-4.81,0,*76
1489064436.91,17127,9.94,73016.3,1.45,-4.93,-5.23,0,*75
1489064438.12,17128,9.94,73018.0,1.49,-5.69,-6.05,0,*75
1489064439.35,17129,9.94,73016.0,1.49,-5.07,-5.51,0,*7E
1489064440.53,17130,9.94,73014.8,1.53,-5.43,-6.01,0,*7B
1489064441.72,17131,9.94,73014.0,1.53,-5.35,-6.01,0,*7B
1489064442.97,17132,9.94,73012.3,1.53,-5.07,-5.85,0,*76
1489064444.21,17133,9.94,73014.8,1.55,-5.61,-6.47,0,*7C
1489064445.45,17134,9.94,73016.0,1.57,-4.93,-5.69,0,*7A
1489064446.72,17135,9.94,73016.8,1.59,-5.07,-5.73,0,*72
1489064447.93,17136,9.94,73020.0,1.61,-5.35,-5.81,0,*76
1489064449.14,17137,9.94,73020.3,1.65,-5.61,-5.97,0,*75
1489064450.35,17138,9.94,73018.5,1.65,-5.35,-5.61,0,*72
1489064451.57,17139,9.94,73018.3,1.67,-6.09,-6.13,0,*7B
1489064452.84,17140,9.94,73014.8,1.67,-5.31,-5.23,0,*7D
1489064454.03,17141,9.94,73018.0,1.69,-4.61,-4.29,0,*7D
1489064455.28,17142,9.94,73018.0,1.73,-4.77,-4.73,0,*7D
1489064456.56,17143,9.94,73020.0,1.71,-5.15,-5.15,0,*7A
1489064457.77,17144,9.94,73016.0,1.73,-5.35,-5.35,0,*7F
1489064459.01,17145,9.94,73018.3,1.75,-5.69,-5.81,0,*7E
1489064460.22,17146,9.94,73020.0,1.75,-5.47,-5.55,0,*78
1489064461.41,17147,9.94,73018.5,1.75,-5.35,-5.39,0,*76
1489064462.62,17148,9.94,73016.5,1.75,-6.27,-6.69,0,*7F
1489064463.81,17149,9.94,73016.8,1.75,-6.31,-6.69,0,*79
1489064465.05,17150,9.94,73020.3,1.75,-5.27,-5.77,0,*79
1489064466.26,17151,9.94,73024.0,1.75,-4.77,-5.35,0,*7A
1489064467.46,17152,9.94,73020.3,1.75,-6.01,-6.55,0,*7F
1489064468.66,17153,9.94,73022.0,1.75,-6.13,-6.59,0,*71
1489064469.87,17154,9.94,73016.8,1.75,-5.65,-6.05,0,*7D
1489064471.07,17155,9.94,73020.8,1.75,-6.35,-6.85,0,*72
1489064472.26,17156,9.94,73020.0,1.75,-6.31,-6.85,0,*75
1489064473.49,17157,9.94,73022.8,1.75,-7.15,-7.61,0,*78
1489064474.71,17158,9.94,73020.0,1.75,-7.35,-7.87,0,*7D
1489064475.92,17159,9.94,73016.3,1.73,-7.49,-8.17,0,*77
1489064477.15,17160,9.94,73018.8,1.71,-7.69,-8.33,0,*7B
1489064478.41,17161,9.94,73016.3,1.71,-7.31,-8.03,0,*74
1489064479.68,17162,9.94,73014.8,1.67,-8.51,-9.45,0,*7A
1489064480.88,17163,9.94,73018.3,1.67,-8.29,-9.23,0,*74
1489064482.1,17164,9.94,73018.3,1.65,-7.95,-8.89,0,*78
1489064483.31,17165,9.94,73018.5,1.65,-8.07,-9.19,0,*75
1489064484.52,17166,9.94,73016.3,1.61,-7.35,-8.41,0,*70
1489064485.74,17167,9.94,73022.0,1.61,-7.65,-8.97,0,*7F
1489064486.98,17168,9.94,73020.3,1.59,-7.65,-9.19,0,*7C
1489064488.24,17169,9.94,73020.8,1.59,-8.59,-10.41,0,*48
1489064489.47,17170,9.94,73020.3,1.57,-9.57,-11.77,0,*45
1489064490.71,17171,9.94,73022.3,1.55,-8.81,-10.85,0,*40
1489064491.93,17172,9.94,73024.3,1.55,-8.63,-10.85,0,*4F
1489064493.19,17173,9.94,73022.3,1.55,-9.19,-11.55,0,*4E
1489064494.43,17174,9.94,73026.8,1.53,-9.83,-12.53,0,*49
1489064495.72,17175,9.94,73026.5,1.55,-12.11,-14.97,0,*71
1489064497.0,17176,10.0,73030.0,1.51,-13.37,-16.27,0,*7A
1489064498.23,17177,9.94,73026.5,1.49,-13.73,-16.65,0,*74
1489064499.46,17178,10.0,73028.5,1.45,-14.37,-17.17,0,*74
1489064500.72,17179,9.94,73030.3,1.39,-14.51,-17.21,0,*7B
1489064501.95,17180,9.94,73030.0,1.39,-14.69,-17.03,0,*76
1489064503.21,17181,10.0,73030.8,1.37,-16.17,-17.35,0,*77
1489064504.46,17182,9.94,73026.3,1.35,-18.31,-18.89,0,*74
1489064505.73,17183,9.94,73022.5,1.33,-17.55,-17.63,0,*75
1489064506.99,17184,9.94,73020.3,1.31,-17.45,-17.63,0,*71
1489064508.22,17185,10.0,73024.5,1.27,-18.11,-17.97,0,*72
1489064509.44,17186,9.94,73022.3,1.27,-17.79,-17.31,0,*7C
1489064510.67,17187,10.0,73024.0,1.21,-17.73,-16.83,0,*79
1489064511.92,17188,9.94,73026.8,1.17,-17.93,-16.79,0,*78
1489064513.12,17189,9.94,73020.0,1.15,-17.73,-16.45,0,*7A
1489064514.39,17190,10.0,73024.3,1.13,-16.59,-15.43,0,*78
1489064515.65,17191,9.94,73022.0,1.09,-15.39,-14.23,0,*70
1489064516.91,17192,9.94,73016.8,1.07,-14.51,-12.97,0,*7B
1489064518.15,17193,9.94,73018.8,1.07,-14.11,-13.07,0,*76
1489064519.39,17194,9.94,73018.8,1.05,-13.51,-12.83,0,*7D
1489064520.62,17195,10.0,73016.0,1.05,-12.29,-12.07,0,*7E
1489064521.9,17196,10.0,73016.5,1.03,-11.77,-11.85,0,*7A
1489064523.15,17197,9.94,73018.0,1.03,-11.19,-11.59,0,*72
1489064524.41,17198,9.94,73016.5,1.01,-11.63,-11.97,0,*70
1489064525.66,17199,10.0,73020.3,1.03,-11.73,-11.45,0,*7D
1489064526.91,17200,9.94,73020.3,1.05,-11.85,-11.55,0,*70
1489064528.19,17201,9.94,73018.0,1.07,-12.21,-12.71,0,*7B
1489064529.42,17202,9.94,73016.0,1.05,-12.11,-13.51,0,*7A
1489064530.62,17203,9.94,73012.0,1.05,-12.43,-14.15,0,*7B
1489064531.86,17204,9.94,73014.8,1.05,-13.19,-14.97,0,*78
1489064533.14,17205,9.94,73014.5,1.03,-15.85,-17.11,0,*71
1489064534.37,17206,9.94,73014.5,1.01,-16.89,-17.11,0,*7F
1489064535.61,17207,9.94,73014.3,1.01,-16.09,-15.15,0,*70
1489064536.87,17208,10.0,73014.3,0.99,-16.27,-14.89,0,*47
1489064538.12,17209,10.0,73012.8,0.99,-15.49,-13.61,0,*4C
1489064539.39,17210,9.94,73012.3,0.97,-14.47,-11.63,0,*45
1489064540.64,17211,9.94,73012.3,0.99,-13.79,-10.53,0,*42
1489064541.86,17212,9.94,73010.3,0.97,-12.03,-9.15,0,*79
1489064543.06,17213,10.0,73014.0,0.97,-11.23,-9.05,0,*78
1489064544.29,17214,9.94,73010.0,0.99,-10.15,-8.37,0,*75
1489064545.54,17215,9.94,73012.5,0.99,-9.05,-7.77,0,*46
1489064546.76,17216,9.94,73008.0,1.01,-8.29,-7.27,0,*7F
1489064548.0,17217,9.94,73008.5,1.03,-8.21,-7.35,0,*77
1489064549.25,17218,9.94,73012.0,1.03,-7.65,-6.85,0,*7D
1489064550.47,17219,9.94,73012.5,1.05,-8.25,-7.43,0,*7A
1489064551.7,17220,10.0,73014.0,1.05,-8.51,-7.87,0,*7B
1489064552.92,17221,10.0,73014.5,1.05,-8.63,-8.11,0,*7B
1489064554.14,17222,9.94,73014.3,1.05,-7.87,-7.31,0,*70
1489064555.34,17223,10.0,73016.8,1.05,-7.23,-6.81,0,*75
1489064556.53,17224,10.0,73020.3,1.05,-6.69,-6.31,0,*76
1489064557.75,17225,10.0,73020.0,1.05,-6.27,-5.97,0,*72
1489064558.94,17226,9.94,73016.8,1.05,-6.31,-6.09,0,*72
1489064560.21,17227,9.94,73016.0,1.07,-7.05,-7.05,0,*7A
1489064561.46,17228,9.94,73018.3,1.07,-6.93,-6.77,0,*7F
1489064562.73,17229,9.94,73012.8,1.07,-5.77,-5.73,0,*70
1489064564.0,17230,10.0,73016.5,1.07,-7.05,-7.01,0,*78
1489064565.24,17231,10.0,73016.0,1.07,-7.11,-7.23,0,*7C
1489064566.48,17232,10.0,73018.8,1.07,-6.63,-6.43,0,*7C
1489064567.76,17233,10.0,73020.0,1.07,-5.23,-5.11,0,*7E
1489064568.98,17234,10.0,73016.5,1.07,-6.01,-6.09,0,*70
1489064570.2,17235,10.0,73020.0,1.09,-6.39,-6.51,0,*79
1489064571.4,17236,9.94,73018.3,1.11,-6.35,-6.55,0,*7B
1489064572.63,17237,9.94,73016.3,1.09,-6.51,-6.73,0,*75
1489064573.9,17238,10.0,73022.5,1.09,-7.05,-7.31,0,*7D
1489064575.15,17239,10.0,73020.8,1.07,-7.69,-7.83,0,*71
1489064576.43,17240,10.0,73020.5,1.07,-7.43,-7.61,0,*7B
1489064577.68,17241,9.94,73016.5,1.07,-6.55,-6.63,0,*7F
1489064578.95,17242,9.94,73018.5,1.07,-5.65,-5.73,0,*7E
1489064580.23,17243,10.0,73018.5,1.07,-5.07,-5.11,0,*7F
1489064581.42,17244,10.0,73020.8,1.11,-5.35,-5.47,0,*7D
1489064582.65,17245,9.94,73018.3,1.11,-5.31,-5.43,0,*7C
1489064583.87,17246,10.0,73022.3,1.15,-5.89,-5.97,0,*71
1489064585.09,17247,10.0,73022.3,1.15,-4.93,-4.99,0,*75
1489064586.33,17248,10.0,73022.8,1.15,-4.73,-4.73,0,*70
1489064587.59,17249,10.0,73018.8,1.21,-4.93,-4.93,0,*76
1489064588.86,17250,10.0,73020.3,1.21,-5.15,-5.07,0,*7D
1489064590.13,17251,10.0,73022.0,1.21,-4.89,-4.77,0,*7E
1489064591.34,17252,10.0,73022.0,1.25,-4.41,-4.25,0,*7A
1489064592.57,17253,10.0,73020.3,1.29,-4.57,-4.57,0,*75
1489064593.78,17254,10.0,73020.5,1.29,-4.45,-4.37,0,*77
1489064594.99,17255,10.0,73020.5,1.33,-4.53,-4.57,0,*7C
1489064596.25,17256,10.0,73020.5,1.33,-4.93,-4.93,0,*7B
1489064597.52,17257,9.94,73018.0,1.33,-5.03,-5.11,0,*79
1489064598.76,17258,10.0,73022.8,1.33,-5.47,-5.69,0,*79
1489064599.98,17259,9.94,73020.5,1.35,-5.77,-5.97,0,*7C
1489064601.22,17260,9.94,73020.0,1.35,-5.93,-6.19,0,*79
1489064602.49,17261,10.0,73026.3,1.37,-5.77,-5.93,0,*71
1489064603.75,17262,9.94,73020.0,1.37,-5.65,-5.77,0,*7B
1489064605.03,17263,10.0,73022.8,1.37,-5.93,-6.19,0,*78
1489064606.24,17264,9.94,73016.0,1.37,-6.69,-6.85,0,*7C
1489064607.45,17265,10.0,73022.3,1.37,-6.13,-6.13,0,*7F
1489064608.67,17266,10.0,73018.8,1.35,-5.65,-5.51,0,*79
1489064609.89,17267,10.0,73018.5,1.37,-6.51,-6.43,0,*7E
1489064611.11,17268,10.0,73018.8,1.37,-6.13,-6.05,0,*75
1489064612.38,17269,10.0,73018.0,1.37,-5.85,-5.77,0,*7E
1489064613.64,17270,9.94,73016.5,1.37,-5.73,-5.61,0,*78
1489064614.86,17271,9.94,73018.0,1.37,-5.51,-5.47,0,*7D
1489064616.11,17272,9.94,73016.0,1.37,-5.65,-5.51,0,*7E
1489064617.35,17273,10.0,73016.3,1.37,-6.19,-6.13,0,*72
1489064618.54,17274,10.0,73018.0,1.35,-6.09,-5.97,0,*79
1489064619.76,17275,10.0,73016.5,1.37,-6.81,-6.81,0,*7E
1489064620.95,17276,10.0,73016.5,1.35,-6.89,-6.85,0,*73
1489064622.16,17277,9.94,73014.8,1.35,-5.69,-5.43,0,*76
1489064623.35,17278,10.0,73018.3,1.35,-6.73,-6.69,0,*7A
1489064624.54,17279,10.0,73020.5,1.35,-6.73,-6.55,0,*74
1489064625.76,17280,10.0,73022.5,1.35,-6.97,-6.77,0,*78
1489064627.0,17281,10.0,73020.5,1.33,-6.93,-6.89,0,*7A
1489064628.25,17282,10.0,73024.3,1.31,-5.85,-5.69,0,*72
1489064629.44,17283,9.94,73020.8,1.31,-6.01,-5.97,0,*7D
1489064630.69,17284,10.0,73026.0,1.31,-5.81,-5.81,0,*76
1489064631.9,17285,10.0,73024.8,1.29,-6.01,-5.97,0,*72
1489064633.14,17286,10.0,73026.0,1.29,-5.89,-5.97,0,*72
1489064634.35,17287,10.0,73026.3,1.31,-6.23,-6.13,0,*76
1489064635.54,17288,10.0,73026.3,1.31,-6.13,-6.09,0,*71
1489064636.76,17289,10.0,73024.5,1.31,-6.13,-6.23,0,*78
1489064638.0,17290,10.0,73026.3,1.27,-7.31,-7.31,0,*74
1489064639.24,17291,10.0,73026.3,1.27,-7.05,-6.93,0,*7B
1489064640.49,17292,9.94,73022.0,1.27,-5.89,-5.85,0,*7A
1489064641.71,17293,10.0,73026.3,1.27,-6.31,-6.27,0,*70
1489064642.91,17294,10.0,73026.5,1.23,-6.31,-6.35,0,*70
1489064644.15,17295,10.0,73028.0,1.25,-6.23,-6.31,0,*70
1489064645.35,17296,10.0,73028.3,1.23,-6.43,-6.43,0,*76
1489064646.55,17297,10.0,73028.8,1.23,-6.43,-6.47,0,*73
1489064647.79,17298,10.0,73028.5,1.23,-7.01,-7.01,0,*78
1489064649.06,17299,10.0,73032.3,1.17,-7.69,-7.77,0,*71
1489064650.28,17300,10.0,73028.8,1.17,-8.93,-9.23,0,*75
1489064651.55,17301,10.0,73034.8,1.13,-9.57,-9.83,0,*73
1489064652.77,17302,10.0,73034.8,1.09,-9.89,-10.35,0,*4D
1489064654.0,17303,10.0,73028.3,1.05,-9.49,-10.01,0,*4B
1489064655.22,17304,10.0,73028.5,1.03,-10.05,-10.93,0,*71
1489064656.46,17305,10.0,73026.0,0.99,-10.15,-11.19,0,*40
1489064657.71,17306,10.0,73020.0,0.91,-10.89,-11.93,0,*4C
1489064658.96,17307,10.0,73020.8,0.89,-10.79,-11.97,0,*4F
1489064660.22,17308,10.0,73020.8,0.85,-10.79,-11.93,0,*48
1489064661.48,17309,10.0,73024.5,0.83,-12.07,-12.97,0,*43
1489064662.72,17310,10.0,73022.8,0.79,-13.15,-13.37,0,*47
1489064663.91,17311,10.0,73016.3,0.73,-13.07,-13.23,0,*4A
1489064665.14,17312,10.0,73020.5,0.73,-11.81,-11.81,0,*4F
1489064666.41,17313,10.0,73012.3,0.67,-12.71,-12.53,0,*4B
1489064667.62,17314,9.94,73012.8,0.65,-11.59,-11.15,0,*46
1489064668.87,17315,10.0,73016.3,0.63,-11.23,-10.63,0,*4C
1489064670.11,17316,10.0,73018.8,0.63,-10.75,-10.09,0,*41
1489064671.31,17317,10.0,73018.8,0.61,-10.93,-10.35,0,*45
1489064672.55,17318,10.0,73020.8,0.59,-10.19,-9.61,0,*7A
1489064673.73,17319,10.0,73022.8,0.57,-10.35,-9.93,0,*76
1489064674.98,17320,10.0,73020.5,0.55,-10.75,-10.49,0,*45
1489064676.19,17321,10.0,73016.3,0.53,-10.75,-10.49,0,*42
1489064677.44,17322,10.0,73018.0,0.51,-10.89,-10.63,0,*48
1489064678.66,17323,10.0,73012.0,0.51,-11.45,-11.19,0,*44
1489064679.88,17324,10.0,73010.3,0.45,-11.51,-11.11,0,*4B
1489064681.06,17325,10.0,73010.3,0.43,-11.23,-10.85,0,*45
1489064682.29,17326,10.0,73008.5,0.39,-11.01,-10.63,0,*43
1489064683.51,17327,10.0,73004.8,0.37,-10.57,-10.23,0,*4A
1489064684.73,17328,10.0,73000.8,0.33,-9.93,-9.57,0,*4A
1489064685.94,17329,10.0,73006.0,0.33,-9.23,-8.85,0,*4E
1489064687.16,17330,10.0,73002.0,0.33,-9.49,-9.31,0,*44
1489064688.39,17331,10.0,73004.3,0.33,-9.49,-9.19,0,*4F
1489064689.65,17332,10.0,73004.3,0.29,-9.41,-9.11,0,*47
1489064690.89,17333,10.0,73002.8,0.29,-9.15,-8.97,0,*48
1489064692.12,17334,10.0,73002.5,0.29,-8.21,-7.91,0,*40
1489064693.35,17335,10.0,73006.8,0.29,-8.29,-8.03,0,*4D
1489064694.57,17336,10.0,73004.5,0.27,-8.21,-8.07,0,*4C
1489064695.78,17337,10.0,73004.8,0.27,-9.37,-9.27,0,*48
1489064696.99,17338,10.0,73006.8,0.21,-8.85,-8.63,0,*48
1489064698.25,17339,10.0,73010.5,0.21,-7.95,-7.73,0,*49
1489064699.51,17340,10.0,73006.0,0.21,-7.05,-6.93,0,*41
1489064700.72,17341,10.0,73006.0,0.21,-7.19,-7.15,0,*42
1489064701.93,17342,10.0,73010.0,0.21,-7.23,-7.19,0,*44
1489064703.14,17343,10.0,73014.3,0.21,-7.49,-7.49,0,*4C
1489064704.32,17344,10.0,73012.0,0.19,-8.29,-8.29,0,*40
1489064705.53,17345,10.0,73014.0,0.19,-8.51,-8.41,0,*40
1489064706.71,17346,10.0,73018.5,0.19,-8.55,-8.55,0,*42
1489064707.95,17347,10.0,73014.8,0.19,-8.11,-8.03,0,*40
1489064709.13,17348,10.0,73018.8,0.15,-7.53,-7.53,0,*40
1489064710.31,17349,10.0,73020.5,0.15,-6.85,-6.85,0,*41
1489064711.52,17350,10.0,73020.0,0.17,-6.73,-6.81,0,*46
1489064712.72,17351,10.0,73020.0,0.17,-6.69,-6.73,0,*41
1489064713.91,17352,10.0,73022.0,0.19,-6.77,-6.69,0,*48
1489064715.11,17353,10.0,73022.0,0.17,-6.59,-6.69,0,*4B
1489064716.35,17354,10.0,73016.8,0.19,-6.93,-6.93,0,*41
1489064717.54,17355,10.0,73018.0,0.19,-7.19,-7.15,0,*4C
1489064718.75,17356,10.0,73020.8,0.19,-8.11,-8.25,0,*44
1489064719.99,17357,10.0,73016.8,0.19,-7.69,-7.73,0,*49
1489064721.22,17358,10.0,73020.5,0.15,-7.91,-7.99,0,*49
1489064722.46,17359,10.0,73018.0,0.15,-8.03,-8.07,0,*44
1489064723.69,17360,10.0,73020.0,0.15,-7.27,-7.27,0,*4A
1489064724.91,17361,10.0,73022.8,0.15,-7.53,-7.65,0,*4E
1489064726.12,17362,10.0,73022.0,0.13,-7.15,-7.23,0,*4B
1489064727.34,17363,10.0,73024.0,0.13,-6.47,-6.47,0,*4F
1489064728.55,17364,10.0,73028.8,0.13,-6.51,-6.73,0,*48
1489064729.74,17365,10.0,73028.3,0.15,-6.47,-6.59,0,*40
1489064730.95,17366,10.0,73028.0,0.17,-6.59,-6.81,0,*4B
1489064732.14,17367,10.0,73026.8,0.15,-6.35,-6.69,0,*44
1489064733.32,17368,10.0,73026.0,0.15,-6.47,-6.69,0,*4E
1489064734.53,17369,10.0,73028.5,0.17,-6.59,-6.85,0,*40
1489064735.74,17370,10.0,73026.0,0.17,-6.43,-6.59,0,*42
1489064736.99,17371,10.0,73026.5,0.17,-5.81,-5.77,0,*41
1489064738.23,17372,10.0,73024.8,0.19,-5.77,-5.89,0,*44
1489064739.45,17373,10.0,73024.5,0.21,-6.13,-6.43,0,*4A
1489064740.68,17374,10.0,73026.5,0.21,-6.23,-6.51,0,*4D
1489064741.87,17375,10.0,73022.8,0.23,-6.39,-6.59,0,*4D
1489064743.06,17376,10.0,73020.0,0.23,-6.51,-6.85,0,*41
1489064744.27,17377,10.0,73024.8,0.23,-7.69,-7.83,0,*4D
1489064745.46,17378,10.0,73022.8,0.23,-8.89,-9.05,0,*43
1489064746.65,17379,10.0,73020.3,0.19,-9.05,-9.05,0,*4E
1489064747.83,17380,10.0,73018.5,0.19,-8.67,-8.63,0,*4C
1489064749.07,17381,10.0,73012.3,0.19,-8.11,-8.03,0,*4A
1489064750.31,17382,10.0,73012.3,0.19,-7.57,-7.43,0,*4F
1489064751.51,17383,10.0,73008.0,0.17,-8.21,-8.17,0,*40
1489064752.7,17384,10.0,73008.5,0.15,-8.29,-8.21,0,*48
1489064753.94,17385,10.0,73006.0,0.15,-7.65,-7.61,0,*45
1489064755.15,17386,10.0,73000.5,0.17,-7.23,-7.11,0,*41
1489064756.38,17387,10.0,72998.0,0.17,-6.47,-6.27,0,*47
1489064757.59,17388,10.0,73002.8,0.17,-6.13,-6.01,0,*4D
1489064758.79,17389,10.0,73000.0,0.17,-6.47,-6.43,0,*4B
1489064759.98,17390,10.0,72996.8,0.19,-6.31,-6.35,0,*4D
1489064761.19,17391,10.0,72998.3,0.21,-7.15,-7.15,0,*43
1489064762.4,17392,10.0,73004.5,0.19,-6.27,-6.09,0,*47
1489064763.66,17393,10.0,73006.8,0.21,-5.89,-5.77,0,*40
1489064764.89,17394,10.0,73006.3,0.21,-5.97,-5.73,0,*4C
1489064766.1,17395,10.0,73006.5,0.21,-6.09,-6.09,0,*47
1489064767.31,17396,10.0,73008.5,0.21,-6.39,-6.43,0,*49
1489064768.55,17397,10.0,73008.0,0.23,-5.93,-5.85,0,*40
1489064769.77,17398,10.0,73006.3,0.23,-6.77,-6.63,0,*4D
1489064771.01,17399,10.0,73004.0,0.23,-7.57,-7.57,0,*49
1489064772.24,17400,10.0,73006.5,0.23,-7.27,-7.27,0,*4E
1489064773.43,17401,10.0,73008.5,0.19,-8.25,-8.41,0,*44
1489064774.65,17402,10.0,73010.5,0.17,-8.03,-8.17,0,*4E
1489064775.86,17403,10.0,73014.5,0.17,-6.85,-6.85,0,*4A
1489064777.1,17404,10.0,73014.5,0.17,-7.73,-7.87,0,*46
1489064778.28,17405,10.0,73014.3,0.15,-8.33,-8.41,0,*4B
1489064779.49,17406,10.0,73014.8,0.13,-8.25,-8.25,0,*4B
1489064780.73,17407,10.0,73012.3,0.13,-7.23,-7.27,0,*4E
1489064781.99,17408,10.0,73012.5,0.13,-6.97,-7.01,0,*4B
1489064783.21,17409,10.0,73014.5,0.13,-7.15,-7.11,0,*40
1489064784.42,17410,10.0,73014.8,0.11,-7.15,-7.15,0,*4E
1489064785.69,17411,10.0,73012.8,0.13,-7.43,-7.43,0,*4D
1489064786.89,17412,10.0,73014.8,0.11,-6.77,-6.73,0,*48
1489064788.15,17413,10.0,73014.3,0.11,-5.85,-5.73,0,*44
1489064789.39,17414,10.0,73016.0,0.15,-5.23,-5.15,0,*4B
1489064790.66,17415,10.0,73014.0,0.13,-5.81,-5.69,0,*4F
1489064791.87,17416,10.0,73012.0,0.15,-5.65,-5.47,0,*4C
1489064793.13,17417,10.0,73014.0,0.17,-5.81,-5.77,0,*46
1489064794.34,17418,10.0,73018.8,0.17,-6.35,-6.47,0,*45
1489064795.6,17419,10.0,73014.8,0.17,-5.77,-5.69,0,*4E
1489064796.8,17420,10.0,73012.3,0.17,-6.05,-6.13,0,*4C
1489064797.99,17421,10.0,73010.5,0.19,-6.89,-6.81,0,*4C
1489064799.23,17422,10.0,73010.0,0.19,-5.89,-5.85,0,*4B
1489064800.42,17423,10.0,73006.5,0.19,-6.55,-6.51,0,*42
1489064801.65,17424,10.0,73006.8,0.21,-6.39,-6.23,0,*41
1489064802.84,17425,10.0,73006.3,0.19,-6.39,-6.31,0,*48
1489064804.1,17426,10.0,73010.8,0.21,-5.89,-5.89,0,*48
1489064805.35,17427,10.0,73014.8,0.21,-6.27,-6.23,0,*4D
1489064806.58,17428,10.0,73008.5,0.21,-6.39,-6.23,0,*4D
1489064807.82,17429,10.0,73010.0,0.21,-6.27,-6.31,0,*40
1489064809.05,17430,10.0,73012.0,0.21,-6.31,-6.23,0,*4C
1489064810.26,17431,10.0,73010.3,0.19,-6.01,-5.89,0,*46
1489064811.47,17432,10.0,73012.0,0.21,-6.13,-5.97,0,*42
1489064812.69,17433,10.0,73010.3,0.19,-6.01,-5.85,0,*48
1489064813.9,17434,10.0,73008.8,0.27,-6.05,-5.93,0,*41
1489064815.13,17435,10.0,73008.3,0.21,-6.31,-6.23,0,*49
1489064816.31,17436,10.0,73004.8,0.23,-6.39,-6.35,0,*47
1489064817.55,17437,10.0,73014.5,0.23,-5.73,-5.69,0,*41
1489064818.73,17438,10.0,73014.3,0.27,-6.13,-6.13,0,*41
1489064819.96,17439,10.0,73010.5,0.23,-6.63,-6.63,0,*44
1489064821.14,17440,10.0,73010.3,0.23,-6.05,-5.97,0,*42
1489064822.38,17441,10.0,73014.0,0.23,-5.73,-5.61,0,*48
1489064823.59,17442,10.0,73016.3,0.23,-6.19,-6.05,0,*45
1489064824.8,17443,10.0,73018.0,0.23,-6.39,-6.27,0,*46
1489064826.0,17444,10.0,73012.5,0.21,-6.69,-6.69,0,*4C
1489064827.21,17445,10.0,73014.5,0.21,-6.89,-6.77,0,*4C
1489064828.39,17446,10.0,73016.5,0.19,-6.77,-6.77,0,*45
1489064829.61,17447,10.0,73014.5,0.21,-6.43,-6.51,0,*4C
1489064830.79,17448,10.0,73012.5,0.19,-6.13,-6.09,0,*40
1489064832.03,17449,10.0,73008.5,0.21,-5.97,-5.89,0,*4E
1489064833.25,17450,10.0,73008.8,0.19,-6.93,-7.15,0,*4D
1489064834.45,17451,10.0,73010.0,0.19,-6.63,-6.55,0,*46
1489064835.64,17452,10.0,73004.8,0.19,-6.55,-6.51,0,*44
1489064836.83,17453,10.0,73010.3,0.19,-6.43,-6.31,0,*44
1489064838.02,17454,10.0,73014.0,0.19,-6.55,-6.51,0,*42
1489064839.21,17455,10.0,73008.0,0.15,-6.43,-6.35,0,*4A
1489064840.42,17456,10.0,73012.3,0.17,-6.59,-6.59,0,*4A
1489064841.63,17457,10.0,73006.8,0.17,-6.59,-6.59,0,*4B
1489064842.84,17458,10.0,73008.0,0.17,-6.69,-6.55,0,*4B
1489064844.02,17459,10.0,73010.3,0.15,-6.31,-6.13,0,*47
1489064845.25,17460,10.0,73006.5,0.17,-6.19,-6.01,0,*46
1489064846.47,17461,10.0,73006.3,0.15,-6.35,-6.27,0,*4F
1489064847.66,17462,10.0,73010.0,0.15,-6.85,-6.81,0,*4B
1489064848.85,17463,10.0,73010.8,0.15,-6.59,-6.59,0,*4E
1489064850.03,17464,10.0,73008.0,0.15,-6.55,-6.69,0,*46
1489064851.23,17465,10.0,73012.0,0.15,-7.11,-7.19,0,*40
1489064852.44,17466,10.0,73008.5,0.15,-6.31,-6.27,0,*4C
1489064853.67,17467,10.0,73016.5,0.15,-6.27,-6.27,0,*4A
1489064854.88,17468,10.0,73020.0,0.13,-6.73,-6.77,0,*47
1489064856.12,17469,10.0,73016.0,0.13,-7.01,-7.23,0,*42
1489064857.33,17470,10.0,73018.3,0.11,-6.47,-6.47,0,*48
1489064858.54,17471,10.0,73010.3,0.11,-7.23,-7.15,0,*4C
1489064859.77,17472,10.0,73012.5,0.11,-6.31,-6.19,0,*40
1489064860.98,17473,10.0,73010.0,0.11,-7.15,-7.23,0,*4E
1489064862.24,17474,10.0,73016.0,0.11,-7.65,-7.65,0,*4C
1489064863.44,17475,10.0,73018.0,0.09,-7.49,-7.57,0,*7B
1489064864.62,17476,10.0,73012.0,0.05,-8.41,-8.37,0,*7A
1489064865.8,17477,10.0,73012.8,0.05,-8.55,-8.59,0,*76
1489064867.0,17478,10.0,73014.3,-0.03,-8.03,-8.17,0,*5B
1489064868.27,17479,10.0,73018.3,-0.01,-9.15,-9.15,0,*5D
1489064869.5,17480,10.0,73020.3,-0.03,-9.45,-9.45,0,*59
1489064870.71,17481,10.0,73026.5,-0.05,-9.19,-9.23,0,*57
1489064871.95,17482,10.0,73020.0,-0.11,-9.45,-9.41,0,*6C
1489064873.22,17483,10.0,73014.8,-0.13,-9.37,-9.45,0,*6E
1489064874.46,17484,10.0,73016.0,-0.15,-9.57,-9.49,0,*65
1489064875.66,17485,10.0,73014.0,-0.21,-10.35,-10.35,0,*6C
1489064876.88,17486,10.0,73012.3,-0.23,-9.01,-8.97,0,*63
1489064878.08,17487,10.0,73018.3,-0.25,-8.85,-8.71,0,*61
1489064879.31,17488,10.0,73012.3,-0.27,-8.81,-8.75,0,*6C
1489064880.52,17489,10.0,73008.3,-0.29,-9.83,-9.75,0,*61
1489064881.79,17490,10.0,73010.0,-0.31,-9.61,-9.61,0,*69
1489064882.98,17491,10.0,73004.8,-0.33,-9.79,-9.71,0,*62
1489064884.2,17492,10.0,73002.3,-0.37,-9.49,-9.75,0,*62
1489064885.42,17493,10.0,73000.8,-0.39,-9.75,-9.75,0,*62
1489064886.63,17494,10.0,72996.3,-0.43,-9.67,-9.67,0,*68
1489064887.84,17495,10.0,72996.5,-0.45,-9.57,-9.67,0,*6C
1489064889.05,17496,10.0,72998.5,-0.47,-9.93,-9.93,0,*6E
1489064890.31,17497,10.0,73000.8,-0.51,-9.53,-9.41,0,*6B
1489064891.55,17498,10.0,73002.0,-0.55,-9.37,-9.23,0,*66
1489064892.76,17499,10.0,73002.5,-0.55,-9.23,-9.31,0,*61
1489064893.97,17500,10.0,73002.5,-0.55,-8.97,-8.93,0,*67
1489064895.19,17501,10.0,73004.0,-0.57,-9.23,-9.37,0,*65
1489064896.38,17502,10.0,72998.3,-0.61,-9.97,-9.97,0,*66
1489064897.64,17503,10.0,73000.3,-0.63,-9.53,-9.41,0,*66
1489064898.86,17504,10.0,72998.3,-0.63,-9.31,-9.27,0,*65
1489064900.1,17505,10.0,73000.3,-0.67,-8.17,-7.99,0,*6E
1489064901.35,17506,10.0,73002.0,-0.67,-7.43,-7.23,0,*62
1489064902.59,17507,10.0,73002.8,-0.67,-7.23,-7.01,0,*65
1489064903.81,17508,10.0,73004.0,-0.67,-6.81,-6.55,0,*63
1489064905.06,17509,10.0,73006.0,-0.67,-7.01,-6.81,0,*62
1489064906.32,17510,10.0,73006.8,-0.63,-7.39,-7.31,0,*6F
1489064907.56,17511,10.0,73004.0,-0.63,-7.11,-6.97,0,*69
1489064908.76,17512,10.0,73002.5,-0.61,-6.73,-6.59,0,*6F
1489064909.95,17513,10.0,73004.5,-0.61,-6.59,-6.51,0,*6E
1489064911.16,17514,10.0,73006.5,-0.61,-6.73,-6.63,0,*60
1489064912.39,17515,10.0,73010.0,-0.59,-6.55,-6.35,0,*6D
1489064913.62,17516,10.0,73012.3,-0.61,-6.63,-6.63,0,*63
1489064914.86,17517,10.0,73014.5,-0.61,-7.31,-7.31,0,*62
1489064916.07,17518,10.0,73018.3,-0.61,-6.63,-6.39,0,*62
1489064917.28,17519,10.0,73018.5,-0.59,-6.13,-6.01,0,*64
1489064918.53,17520,10.0,73018.8,-0.59,-6.19,-6.01,0,*64
1489064919.75,17521,10.0,73022.5,-0.57,-6.35,-6.27,0,*61
1489064920.96,17522,10.0,73018.8,-0.57,-6.47,-6.19,0,*6A